Darstellungsparameter: Aktuell verwendete Einstellungen:
Skalierung der Graphiken ... ?
xyx+y,   Skalierungsfaktor:      Skalierung: Modus: x, Faktor: 1
Darstellungszeitraum ... ?
Vom - - bis: - -   Zeitraum: 25.04.2010 - 24.04.2020
Min/Max/Avg-Anzeige ... ?
Zeige MMA aktuell
Zeige MMA Monat
Zeige MMA alles
Zeige --A aktuell
Zeige --A Monat
Zeige --A alles
Keine MMA-Anzeige
MMA:
Keine MMA-Graphiken
MMA-Basis: 25.04.2010 - 24.04.2020
Quicknavigation für Darstellung... ?
Tage:      1T, 2T, 3T, 5T -1T -2T -3T -5T +1T +2T +3T +5T
Wochen: 1W, 2W, 3W -1W -2W -3W +1W +2W +3W
Monate: 1M, 3M, 6M -1M -3M -6M +1M +3M +6M
Jahre:    1J, 3J, 5J, 10J -1J -3J -5J -10J +1J +3J +5J +10J
Nutze für die Darstellung ... ?
Originaldaten oder ...
Mittelwerte Minima Maxima auf...
Stundenbasis Tagesbasis Wochenbasis
Monatsbasis Jahresbasis      Datenbasis: Minima auf Monatsbasis
Darstellen als:
Statistik (Auto) Statistik J:M      Darstellung:
Zur Graphik,    zurück zur Übersicht aller Sensoren.
 
Tabellarische Datenbersicht: ?
 
Sensor: Nr:Datum:Temp:Feuchte:
Aussen-T/F 1 01-02-2012 00:00:00 -19.1 C 20 %
2 01-03-2012 00:00:00 -3.7 C 20 %
3 01-04-2012 00:00:00 -4.1 C 20 %
4 01-05-2012 00:00:00 0.1 C 20 %
5 01-06-2012 00:00:00 8 C 20 %
6 01-07-2012 00:00:00 6.7 C 20 %
7 01-08-2012 00:00:00 8.6 C 20 %
8 01-09-2012 00:00:00 2.7 C 20 %
9 01-10-2012 00:00:00 -5.3 C 20 %
10 01-11-2012 00:00:00 -4 C 41 %
11 01-12-2012 00:00:00 -10.7 C 47 %
12 01-01-2013 00:00:00 -9 C 48 %
13 01-02-2013 00:00:00 -9 C 25 %
14 01-03-2013 00:00:00 -11.4 C 20 %
15 01-04-2013 00:00:00 -6.4 C 20 %
16 01-05-2013 00:00:00 1.5 C 20 %
17 01-06-2013 00:00:00 5.6 C 20 %
18 01-07-2013 00:00:00 9.2 C 20 %
19 01-08-2013 00:00:00 7.5 C 20 %
20 01-09-2013 00:00:00 5.2 C 21 %
21 01-10-2013 00:00:00 1.9 C 36 %
22 01-11-2013 00:00:00 -2 C 56 %
23 01-12-2013 00:00:00 -3.2 C 39 %
24 01-01-2014 00:00:00 -2.6 C 52 %
25 01-02-2014 00:00:00 -3.2 C 31 %
Sensor: Nr:Datum:Temp:Feuchte:
Aussen-T/F 26 01-03-2014 00:00:00 -2.3 C 20 %
27 01-04-2014 00:00:00 -0.3 C 20 %
28 01-05-2014 00:00:00 1.7 C 20 %
29 01-06-2014 00:00:00 6.7 C 20 %
30 01-07-2014 00:00:00 8.5 C 20 %
31 01-08-2014 00:00:00 7.9 C 20 %
32 01-09-2014 00:00:00 6.4 C 20 %
33 01-10-2014 00:00:00 4.4 C 48 %
34 01-11-2014 00:00:00 0.5 C 61 %
35 01-12-2014 00:00:00 -5.8 C 46 %
36 01-01-2015 00:00:00 -3.9 C 41 %
37 01-02-2015 00:00:00 -6.4 C 40 %
38 01-03-2015 00:00:00 -2.6 C 28 %
39 01-04-2015 00:00:00 -1 C 20 %
40 01-05-2015 00:00:00 2.6 C 20 %
41 01-06-2015 00:00:00 7.3 C 20 %
42 01-07-2015 00:00:00 7.9 C 20 %
43 01-08-2015 00:00:00 9.7 C 20 %
44 01-09-2015 00:00:00 4.9 C 20 %
45 01-10-2015 00:00:00 -0.3 C 25 %
46 01-11-2015 00:00:00 -1.3 C 40 %
47 01-12-2015 00:00:00 -1.6 C 38 %
48 01-01-2016 00:00:00 -9 C 20 %
49 01-02-2016 00:00:00 -4.2 C 20 %
50 01-03-2016 00:00:00 -4.8 C 20 %
Sensor: Nr:Datum:Temp:Feuchte:
Aussen-T/F 51 01-04-2016 00:00:00 -0.5 C 20 %
52 01-05-2016 00:00:00 1.3 C 20 %
53 01-06-2016 00:00:00 -18.7 C 20 %
54 01-07-2016 00:00:00 10.5 C 20 %
55 01-08-2016 00:00:00 6.5 C 20 %
56 01-09-2016 00:00:00 6.1 C 20 %
57 01-10-2016 00:00:00 3 C 20 %
58 01-11-2016 00:00:00 -7.5 C 20 %
59 01-12-2016 00:00:00 -7.7 C 20 %
60 01-01-2017 00:00:00 -12.4 C 20 %
61 01-02-2017 00:00:00 -4.3 C 20 %
62 01-03-2017 00:00:00 -1.6 C 20 %
63 01-04-2017 00:00:00 -3.2 C 20 %
64 01-05-2017 00:00:00 1.1 C 20 %
65 01-06-2017 00:00:00 9.2 C 20 %
66 01-07-2017 00:00:00 9.2 C 20 %
67 01-08-2017 00:00:00 9.6 C 20 %
68 01-09-2017 00:00:00 5.4 C 20 %
69 01-10-2017 00:00:00 2 C 20 %
70 01-11-2017 00:00:00 -0.8 C 20 %
71 01-12-2017 00:00:00 -5 C 20 %
72 01-01-2018 00:00:00 -6.9 C 20 %
73 01-02-2018 00:00:00 -12.4 C 20 %
74 01-03-2018 00:00:00 -8.3 C 20 %
75 01-04-2018 00:00:00 -1.1 C 20 %
Sensor: Nr:Datum:Temp:Feuchte:
Aussen-T/F 76 01-05-2018 00:00:00 1.2 C 20 %
77 01-06-2018 00:00:00 8.7 C 20 %
78 01-07-2018 00:00:00 11 C 20 %
79 01-08-2018 00:00:00 6.7 C 20 %
80 01-09-2018 00:00:00 1.3 C 20 %
81 01-10-2018 00:00:00 2.1 C 20 %
82 01-11-2018 00:00:00 -3.8 C 20 %
83 01-12-2018 00:00:00 -3.1 C 20 %
84 01-01-2019 00:00:00 -10.2 C 20 %
85 01-02-2019 00:00:00 -4 C 20 %
86 01-03-2019 00:00:00 -2.5 C 20 %
87 01-04-2019 00:00:00 -0.6 C 20 %
88 01-05-2019 00:00:00 1.6 C 20 %
89 01-06-2019 00:00:00 8.2 C 20 %
90 01-07-2019 00:00:00 8.1 C 20 %
91 01-08-2019 00:00:00 9.5 C 20 %
92 01-09-2019 00:00:00 3.3 C 20 %
93 01-10-2019 00:00:00 -2.1 C 20 %
94 01-11-2019 00:00:00 -2.7 C 20 %
95 01-12-2019 00:00:00 -5 C 20 %
96 01-01-2020 00:00:00 -4.5 C 20 %
97 01-02-2020 00:00:00 -3.3 C 20 %
98 01-03-2020 00:00:00 -4.7 C 20 %
99 01-04-2020 00:00:00 -4.7 C 20 %
Sensor: Nr:Datum:Temp:Feuchte:
G-T/H 1 01-02-2012 00:00:00 2.4 C 43 %
2 01-03-2012 00:00:00 6.9 C 32 %
3 01-04-2012 00:00:00 7.9 C 42 %
4 01-05-2012 00:00:00 10.9 C 39 %
5 01-06-2012 00:00:00 14.3 C 49 %
6 01-07-2012 00:00:00 15.2 C 41 %
7 01-08-2012 00:00:00 16.2 C 40 %
8 01-09-2012 00:00:00 12.6 C 48 %
9 01-10-2012 00:00:00 6.7 C 46 %
10 01-11-2012 00:00:00 5.5 C 58 %
11 01-12-2012 00:00:00 1.8 C 63 %
12 01-01-2013 00:00:00 2.4 C 56 %
13 01-02-2013 00:00:00 3.2 C 65 %
14 01-03-2013 00:00:00 1.2 C 58 %
15 01-04-2013 00:00:00 5.7 C 45 %
16 01-05-2013 00:00:00 6.7 C 38 %
17 01-06-2013 00:00:00 11.8 C 39 %
18 01-07-2013 00:00:00 15.2 C 32 %
19 01-08-2013 00:00:00 14.1 C 37 %
20 01-09-2013 00:00:00 10.5 C 49 %
21 01-10-2013 00:00:00 8.9 C 58 %
22 01-11-2013 00:00:00 6 C 64 %
23 01-12-2013 00:00:00 6.2 C 62 %
24 01-01-2014 00:00:00 6.1 C 63 %
25 01-02-2014 00:00:00 6 C 65 %
Sensor: Nr:Datum:Temp:Feuchte:
G-T/H 26 01-03-2014 00:00:00 6.7 C 39 %
27 01-04-2014 00:00:00 6.8 C 41 %
28 01-05-2014 00:00:00 11.7 C 38 %
29 01-06-2014 00:00:00 14.8 C 53 %
30 01-07-2014 00:00:00 15.6 C 36 %
31 01-08-2014 00:00:00 12.4 C 46 %
32 01-09-2014 00:00:00 13.4 C 55 %
33 01-10-2014 00:00:00 11.4 C 66 %
34 01-11-2014 00:00:00 7.5 C 65 %
35 01-12-2014 00:00:00 4.3 C 57 %
36 01-01-2015 00:00:00 2 C 54 %
37 01-02-2015 00:00:00 4.9 C 57 %
38 01-03-2015 00:00:00 6.1 C 57 %
39 01-04-2015 00:00:00 7.6 C 33 %
40 01-05-2015 00:00:00 10.2 C 49 %
41 01-06-2015 00:00:00 14.4 C 54 %
42 01-07-2015 00:00:00 15.6 C 32 %
43 01-08-2015 00:00:00 14.6 C 45 %
44 01-09-2015 00:00:00 12.9 C 54 %
45 01-10-2015 00:00:00 9.7 C 56 %
46 01-11-2015 00:00:00 7.4 C 61 %
47 01-12-2015 00:00:00 7.1 C 63 %
48 01-01-2016 00:00:00 4.1 C 60 %
49 01-02-2016 00:00:00 5.4 C 58 %
50 01-03-2016 00:00:00 5.8 C 57 %
Sensor: Nr:Datum:Temp:Feuchte:
G-T/H 51 01-04-2016 00:00:00 8.6 C 42 %
52 01-05-2016 00:00:00 10.4 C 38 %
53 01-06-2016 00:00:00 13.2 C 43 %
54 01-07-2016 00:00:00 15.6 C 44 %
55 01-08-2016 00:00:00 16.2 C 45 %
56 01-09-2016 00:00:00 14.4 C 44 %
57 01-10-2016 00:00:00 9.3 C 50 %
58 01-11-2016 00:00:00 5.7 C 55 %
59 01-12-2016 00:00:00 -6 C 56 %
60 01-01-2017 00:00:00 3.7 C 44 %
61 01-02-2017 00:00:00 5.6 C 58 %
62 01-03-2017 00:00:00 5.7 C 27 %
63 01-04-2017 00:00:00 3.8 C 38 %
64 01-05-2017 00:00:00 10.1 C 28 %
65 01-06-2017 00:00:00 15.8 C 32 %
66 01-07-2017 00:00:00 15.9 C 40 %
67 01-08-2017 00:00:00 15 C 41 %
68 01-09-2017 00:00:00 12.1 C 49 %
69 01-10-2017 00:00:00 10.9 C 63 %
70 01-11-2017 00:00:00 6.7 C 63 %
71 01-12-2017 00:00:00 4.7 C 52 %
72 01-01-2018 00:00:00 5.3 C 60 %
73 01-02-2018 00:00:00 2 C 40 %
74 01-03-2018 00:00:00 4 C 50 %
75 01-04-2018 00:00:00 8.5 C 37 %
Sensor: Nr:Datum:Temp:Feuchte:
G-T/H 76 01-05-2018 00:00:00 12 C 32 %
77 01-06-2018 00:00:00 16.3 C 27 %
78 01-07-2018 00:00:00 18.2 C 28 %
79 01-08-2018 00:00:00 16.6 C 34 %
80 01-09-2018 00:00:00 11.2 C 40 %
81 01-10-2018 00:00:00 9.7 C 60 %
82 01-11-2018 00:00:00 7.3 C 63 %
83 01-12-2018 00:00:00 6.4 C 65 %
84 01-01-2019 00:00:00 4.8 C 56 %
85 01-02-2019 00:00:00 4.5 C 62 %
86 01-03-2019 00:00:00 3.3 C 43 %
87 01-04-2019 00:00:00 6.7 C 27 %
88 01-05-2019 00:00:00 10.8 C 36 %
89 01-06-2019 00:00:00 14.7 C 25 %
90 01-07-2019 00:00:00 14 C 26 %
91 01-08-2019 00:00:00 14.9 C 40 %
92 01-09-2019 00:00:00 8.9 C 33 %
93 01-10-2019 00:00:00 7.3 C 60 %
94 01-11-2019 00:00:00 8 C 57 %
95 01-12-2019 00:00:00 5.1 C 61 %
96 01-01-2020 00:00:00 6 C 67 %
97 01-02-2020 00:00:00 7 C 55 %
98 01-03-2020 00:00:00 7.4 C 48 %
99 01-04-2020 00:00:00 4.2 C 35 %

Maximal/Minimal-Werte vom 25.04.2010 - 24.04.2020

Sensor Min Max Avg
Temp
(Aussen-T/F)
-19.1 °C
07-02-2012  07:16:02
46.2 °C
19-06-2017  18:30:17
10.9 °C
Feuchte
(Aussen-T/F)
20 %
05-02-2012  20:56:16
95 %
13-04-2012  06:01:01
51.41 %
Temp
(G-T/H)
-6 °C
01-12-2016  10:32:18
29.7 °C
02-08-2013  17:35:01
13.12 °C
Feuchte
(G-T/H)
25 %
29-06-2019  18:04:17
95 %
25-07-2012  18:03:01
67.93 %

Warnung:
When displaying minima or maxima values for days, weeks, months or years no virtual sensors will be displayed.



Die Daten stammen von einer Davis Vantage Pro 2 Wetter-Station und werden unter Linux mit der Software wview2wettercgi und aufbereitet. Alle Angaben erfolgen ohne Gewähr für ihre Vollständigkeit oder Richtigkeit.
Kontakt: Rainer Krienke krienke@uni-koblenz.de . Meine Webseiten an der Uni Koblenz oder privat.
Version: $Revision: 0.78 $